Weather History for Salinas, CA

Change the Weather History Date:

Monday, July 1, 2013

  Actual Average Record
Temperature  
Mean Temperature 68 °F 63 °F  
Max Temperature 78 °F 71 °F 99 °F (1985)
Min Temperature 57 °F 54 °F 44 °F (1931)
Degree Days  
Heating Degree Days 0 3  
Month to date heating degree days 0 3  
Since 1 June heating degree days 98 116  
Since 1 July heating degree days 0 3  
Cooling Degree Days 3 1  
Month to date cooling degree days 3 1  
Year to date cooling degree days 37 29  
Since 1 June cooling degree days 27 13  
Growing Degree Days 16 (Base 50)    
Moisture  
Dew Point 55 °F    
Average Humidity 73    
Maximum Humidity 93    
Minimum Humidity 53    
Precipitation  
Precipitation 0.00 in 0.00 in 0.04 in (1980)
Month to date precipitation 0.00 0.00  
Year to date precipitation 2.33 8.72  
Since 1 July precipitation 0.00 0.00  
Sea Level Pressure  
Sea Level Pressure 29.88 in    
Wind  
Wind Speed 8 mph (WNW)    
Max Wind Speed 20 mph    
Max Gust Speed 23 mph    
Visibility 9 miles    
Events      
T = Trace of Precipitation, MM = Missing Value Source: NWS Daily Summary

Daily Weather History Graph

Daily Weather History Graph

Search for Another Location

Airport:

Trip Planner

Search our weather history database for the weather conditions in past years. The results will help you decide how hot, cold, wet, or windy it might be!

Date:

Astronomy

Jul. 01, 2013 Rise Set
Actual Time 5:51 AM PDT 8:29 PM PDT
Civil Twilight 5:21 AM PDT 8:59 PM PDT
Nautical Twilight 4:43 AM PDT 9:37 PM PDT
Astronomical Twilight 4:00 AM PDT 10:19 PM PDT
Moon 1:18 AM PDT 2:54 PM PDT
Length of Visible Light 15h 38m
Length of Day
14h 37m
Waning Crescent, 34% of the Moon is Illuminated
Jul 1
Waning Crescent
Jul 8
New
Jul 15
First Quarter
Jul 22
Full
Jul 29
Last Quarter

Hourly Weather History & Observations

Time (PDT) Temp. Dew Point Humidity Pressure Visibility Wind Dir Wind Speed Gust Speed Precip Events Conditions
12:30 AM 57.2 °F 55.4 °F 94% 29.84 in 9.0 mi NW 9.2 mph - N/A   Mostly Cloudy
12:53 AM 57.9 °F 55.0 °F 90% 29.86 in 9.0 mi NW 9.2 mph - N/A   Overcast
1:53 AM 57.9 °F 55.0 °F 90% 29.85 in 8.0 mi WNW 6.9 mph - N/A   Scattered Clouds
2:53 AM 57.9 °F 55.0 °F 90% 29.84 in 8.0 mi WNW 5.8 mph - N/A   Clear
3:53 AM 60.1 °F 55.0 °F 83% 29.86 in 10.0 mi NW 3.5 mph - N/A   Clear
4:53 AM 57.0 °F 53.1 °F 87% 29.86 in 8.0 mi Calm Calm - N/A   Clear
5:53 AM 57.0 °F 54.0 °F 89% 29.86 in 7.0 mi Calm Calm - N/A   Clear
6:53 AM 57.0 °F 55.0 °F 93% 29.86 in 5.0 mi Calm Calm - N/A   Clear
7:53 AM 60.1 °F 55.0 °F 83% 29.87 in 7.0 mi East 5.8 mph - N/A   Clear
8:53 AM 66.0 °F 55.9 °F 70% 29.87 in 9.0 mi ESE 6.9 mph - N/A   Clear
9:53 AM 72.0 °F 55.9 °F 57% 29.87 in 10.0 mi Variable 3.5 mph - N/A   Clear
10:53 AM 75.9 °F 57.0 °F 52% 29.88 in 9.0 mi West 8.1 mph - N/A   Clear
11:53 AM 73.9 °F 55.9 °F 53% 29.89 in 10.0 mi WNW 13.8 mph - N/A   Clear
12:53 PM 71.1 °F 55.9 °F 59% 29.90 in 10.0 mi WNW 13.8 mph - N/A   Clear
1:53 PM 69.1 °F 55.0 °F 61% 29.91 in 10.0 mi West 17.3 mph - N/A   Clear
2:53 PM 70.0 °F 55.9 °F 61% 29.91 in 10.0 mi WNW 13.8 mph - N/A   Clear
3:53 PM 70.0 °F 55.9 °F 61% 29.91 in 10.0 mi NW 12.7 mph - N/A   Clear
4:53 PM 71.1 °F 55.9 °F 59% 29.89 in 10.0 mi West 12.7 mph - N/A   Clear
5:53 PM 71.1 °F 55.9 °F 59% 29.88 in 10.0 mi WNW 10.4 mph - N/A   Clear
6:53 PM 68.0 °F 55.9 °F 65% 29.88 in 10.0 mi West 10.4 mph - N/A   Clear
7:53 PM 64.0 °F 55.0 °F 73% 29.89 in 10.0 mi WNW 11.5 mph - N/A   Clear
8:53 PM 62.1 °F 55.0 °F 78% 29.88 in 10.0 mi West 9.2 mph - N/A   Clear
9:53 PM 60.1 °F 55.0 °F 83% 29.91 in 10.0 mi West 9.2 mph - N/A   Clear
10:43 PM 59.0 °F 55.4 °F 88% 29.90 in 10.0 mi West 5.8 mph - N/A   Partly Cloudy
10:53 PM 57.9 °F 55.0 °F 90% 29.92 in 9.0 mi West 10.4 mph - N/A   Partly Cloudy
11:09 PM 57.2 °F 55.4 °F 94% 29.90 in 9.0 mi West 6.9 mph - N/A   Mostly Cloudy
11:23 PM 57.2 °F 55.4 °F 94% 29.90 in 7.0 mi West 8.1 mph - N/A   Overcast
11:53 PM 57.9 °F 55.0 °F 90% 29.93 in 7.0 mi WNW 6.9 mph - N/A   Overcast